Location: Saint Peter Port
(49.4500°N, 2.5330°W)
Time: 06:06:48
(UTC+01:00)

Cosmos 2242 Rocket - Visible Passes

Search period start: 28 August 2014 00:00
Search period end: 07 September 2014 00:00
Orbit: 619 x 654 km, 82.5° (Epoch: 25 August)

Date Brightness Start Highest point End Pass type
(mag) Time Alt. Az. Time Alt. Az. Time Alt. Az.
28 Aug 5.2 01:03:00 30° NNE 01:03:00 30° NNE 01:05:22 10° NNE visible
28 Aug 5.7 02:40:31 18° NW 02:40:31 18° NW 02:42:49 10° NNW visible
29 Aug 5.1 01:25:48 34° N 01:25:48 34° N 01:28:21 10° N visible
29 Aug 6.2 03:03:19 10° NW 03:03:19 10° NW 03:03:49 10° NW visible
30 Aug 5.9 00:11:04 17° NE 00:11:04 17° NE 00:12:24 10° NE visible
30 Aug 5.3 01:48:35 28° NNW 01:48:35 28° NNW 01:51:04 10° N visible
31 Aug 5.5 00:33:51 24° NNE 00:33:51 24° NNE 00:35:47 10° NNE visible
31 Aug 5.8 02:11:22 19° NW 02:11:22 19° NW 02:13:28 10° NNW visible
01 Sep 5.4 00:56:38 29° N 00:56:38 29° N 00:58:49 10° N visible
01 Sep 6.2 02:34:09 12° NW 02:34:09 12° NW 02:35:03 10° NW visible
01 Sep 6.1 23:41:53 14° NE 23:41:53 14° NE 23:42:41 10° NE visible
02 Sep 5.5 01:19:24 26° NNW 01:19:24 26° NNW 01:21:36 10° N visible
03 Sep 5.7 00:04:38 20° NE 00:04:38 20° NE 00:06:10 10° NNE visible
03 Sep 5.9 01:42:09 19° NW 01:42:09 19° NW 01:44:04 10° NNW visible
04 Sep 5.6 00:27:23 25° NNE 00:27:23 25° NNE 00:29:16 10° NNE visible
04 Sep 6.2 02:04:54 13° NW 02:04:54 13° NW 02:05:58 10° NNW visible
04 Sep 6.2 23:12:37 11° NE 23:12:37 11° NE 23:12:55 10° NE visible
05 Sep 5.7 00:50:08 25° N 00:50:08 25° N 00:52:06 10° N visible
05 Sep 5.9 23:35:21 17° NE 23:35:21 17° NE 23:36:32 10° NNE visible
06 Sep 5.9 01:12:52 20° NNW 01:12:52 20° NNW 01:14:39 10° N visible
06 Sep 5.7 23:58:05 22° NNE 23:58:05 22° NNE 23:59:42 10° NNE visible
